Time,TemperatureF,DewpointF,PressureIn,WindDirection,WindDirectionDegrees,WindSpeedMPH,WindSpeedGustMPH,Humidity,HourlyPrecipIn,Conditions,Clouds,dailyrainin,SoftwareType,DateUTC
2014-09-16 00:05:00,54.2,51.9,30.23,WSW,253,0.0,10.0,92,0.00,,,0.01,Wunderground v.1.15,2014-09-16 03:05:00,
2014-09-16 00:10:00,54.1,51.8,30.23,WSW,253,0.0,10.0,92,0.00,,,0.01,Wunderground v.1.15,2014-09-16 03:10:00,
2014-09-16 00:20:00,54.0,51.7,30.22,WSW,253,0.0,10.0,92,0.00,,,0.01,Wunderground v.1.15,2014-09-16 03:20:00,
2014-09-16 00:25:00,54.0,51.7,30.22,WSW,253,0.0,10.0,92,0.00,,,0.01,Wunderground v.1.15,2014-09-16 03:25:00,
2014-09-16 00:30:00,54.1,52.1,30.22,WSW,253,0.0,10.0,93,0.00,,,0.01,Wunderground v.1.15,2014-09-16 03:30:00,
2014-09-16 00:35:00,54.1,52.1,30.22,WSW,252,0.0,10.0,93,0.00,,,0.01,Wunderground v.1.15,2014-09-16 03:35:00,
2014-09-16 00:40:00,54.1,52.1,30.22,WSW,252,0.0,10.0,93,0.00,,,0.01,Wunderground v.1.15,2014-09-16 03:40:00,
2014-09-16 00:50:00,54.0,52.0,30.22,WSW,253,0.0,10.0,93,0.00,,,0.01,Wunderground v.1.15,2014-09-16 03:50:00,
2014-09-16 00:55:00,53.9,51.9,30.21,WSW,253,0.0,10.0,93,0.00,,,0.01,Wunderground v.1.15,2014-09-16 03:55:00,
2014-09-16 01:00:00,53.8,51.8,30.21,WSW,253,0.0,10.0,93,0.00,,,0.01,Wunderground v.1.15,2014-09-16 04:00:00,
2014-09-16 01:05:00,53.7,51.7,30.20,WSW,253,0.0,10.0,93,0.00,,,0.00,Wunderground v.1.15,2014-09-16 04:05:00,
2014-09-16 01:10:00,53.6,51.6,30.20,WSW,253,0.0,10.0,93,0.00,,,0.00,Wunderground v.1.15,2014-09-16 04:10:00,
2014-09-16 01:15:00,53.6,51.6,30.20,WSW,253,0.0,10.0,93,0.00,,,0.00,Wunderground v.1.15,2014-09-16 04:15:00,
2014-09-16 01:20:00,53.6,51.6,30.20,WSW,253,0.0,10.0,93,0.00,,,0.00,Wunderground v.1.15,2014-09-16 04:20:00,
2014-09-16 01:25:00,53.6,51.6,30.20,WSW,252,0.0,10.0,93,0.00,,,0.00,Wunderground v.1.15,2014-09-16 04:25:00,
2014-09-16 01:30:00,53.7,52.0,30.20,WSW,253,0.0,10.0,94,0.00,,,0.00,Wunderground v.1.15,2014-09-16 04:30:00,
2014-09-16 01:40:00,53.9,52.2,30.20,WSW,253,0.0,10.0,94,0.00,,,0.00,Wunderground v.1.15,2014-09-16 04:40:00,
2014-09-16 01:45:00,53.9,52.2,30.20,WSW,252,0.0,10.0,94,0.00,,,0.00,Wunderground v.1.15,2014-09-16 04:45:00,
2014-09-16 01:50:00,53.9,52.2,30.20,WSW,253,0.0,10.0,94,0.00,,,0.00,Wunderground v.1.15,2014-09-16 04:50:00,
2014-09-16 01:55:00,53.9,52.2,30.19,WSW,253,0.0,10.0,94,0.00,,,0.00,Wunderground v.1.15,2014-09-16 04:55:00,
2014-09-16 02:00:00,53.8,52.1,30.20,North,360,0.0,10.0,94,0.00,,,0.00,Wunderground v.1.15,2014-09-16 05:00:00,
2014-09-16 02:10:00,53.7,52.0,30.20,North,360,0.0,10.0,94,0.00,,,0.00,Wunderground v.1.15,2014-09-16 05:10:00,
2014-09-16 02:15:00,53.7,52.0,30.20,North,360,0.0,10.0,94,0.00,,,0.00,Wunderground v.1.15,2014-09-16 05:15:00,
2014-09-16 02:20:00,53.7,52.0,30.20,North,360,0.0,10.0,94,0.00,,,0.00,Wunderground v.1.15,2014-09-16 05:20:00,
2014-09-16 02:25:00,53.7,52.0,30.21,North,360,0.0,10.0,94,0.00,,,0.00,Wunderground v.1.15,2014-09-16 05:25:00,
2014-09-16 02:30:00,53.7,52.0,30.21,North,360,0.0,10.0,94,0.00,,,0.00,Wunderground v.1.15,2014-09-16 05:30:00,
2014-09-16 02:35:00,53.8,52.1,30.21,North,360,0.0,10.0,94,0.00,,,0.00,Wunderground v.1.15,2014-09-16 05:35:00,
2014-09-16 02:40:00,53.8,52.4,30.21,North,360,0.0,10.0,95,0.00,,,0.00,Wunderground v.1.15,2014-09-16 05:40:00,
2014-09-16 02:45:00,53.9,52.5,30.21,North,360,0.0,10.0,95,0.00,,,0.00,Wunderground v.1.15,2014-09-16 05:45:00,
2014-09-16 02:50:00,54.0,52.6,30.21,North,360,0.0,10.0,95,0.00,,,0.01,Wunderground v.1.15,2014-09-16 05:50:00,
2014-09-16 02:55:00,54.2,52.8,30.21,North,360,0.0,10.0,95,0.00,,,0.01,Wunderground v.1.15,2014-09-16 05:55:00,
2014-09-16 03:00:00,54.3,52.9,30.21,North,360,0.0,10.0,95,0.00,,,0.01,Wunderground v.1.15,2014-09-16 06:00:00,
2014-09-16 03:05:00,54.3,52.9,30.20,North,360,0.0,10.0,95,0.00,,,0.01,Wunderground v.1.15,2014-09-16 06:05:00,
2014-09-16 03:10:00,54.3,52.9,30.20,North,360,0.0,10.0,95,0.00,,,0.01,Wunderground v.1.15,2014-09-16 06:10:00,
2014-09-16 03:15:00,54.5,53.1,30.20,North,360,0.0,10.0,95,0.00,,,0.01,Wunderground v.1.15,2014-09-16 06:15:00,
2014-09-16 03:20:00,54.6,53.2,30.20,North,360,0.0,10.0,95,0.00,,,0.02,Wunderground v.1.15,2014-09-16 06:20:00,
2014-09-16 03:25:00,54.7,53.3,30.20,North,360,0.0,10.0,95,0.00,,,0.02,Wunderground v.1.15,2014-09-16 06:25:00,
2014-09-16 03:35:00,54.6,53.2,30.20,North,360,0.0,10.0,95,0.05,,,0.03,Wunderground v.1.15,2014-09-16 06:35:00,
2014-09-16 03:40:00,54.4,52.7,30.20,North,360,0.0,10.0,94,0.05,,,0.03,Wunderground v.1.15,2014-09-16 06:40:00,
2014-09-16 03:45:00,54.4,52.7,30.19,North,360,0.0,10.0,94,0.05,,,0.04,Wunderground v.1.15,2014-09-16 06:45:00,
2014-09-16 03:50:00,54.4,52.7,30.19,North,360,0.0,10.0,94,0.05,,,0.04,Wunderground v.1.15,2014-09-16 06:50:00,
2014-09-16 03:55:00,54.3,52.6,30.19,North,360,0.0,10.0,94,0.04,,,0.05,Wunderground v.1.15,2014-09-16 06:55:00,
2014-09-16 04:00:00,54.2,52.5,30.19,North,360,0.0,10.0,94,0.04,,,0.05,Wunderground v.1.15,2014-09-16 07:00:00,
2014-09-16 04:10:00,54.1,52.4,30.19,North,360,0.0,10.0,94,0.04,,,0.05,Wunderground v.1.15,2014-09-16 07:10:00,
2014-09-16 04:15:00,54.0,52.3,30.19,North,360,0.0,10.0,94,0.00,,,0.06,Wunderground v.1.15,2014-09-16 07:15:00,
2014-09-16 04:20:00,53.9,52.2,30.19,North,360,0.0,10.0,94,0.00,,,0.06,Wunderground v.1.15,2014-09-16 07:20:00,
2014-09-16 04:25:00,53.8,52.1,30.19,North,360,0.0,10.0,94,0.00,,,0.06,Wunderground v.1.15,2014-09-16 07:25:00,
2014-09-16 04:30:00,53.8,52.1,30.19,North,360,0.0,10.0,94,0.00,,,0.06,Wunderground v.1.15,2014-09-16 07:30:00,
2014-09-16 04:35:00,53.8,52.1,30.19,North,360,0.0,10.0,94,0.00,,,0.06,Wunderground v.1.15,2014-09-16 07:35:00,
2014-09-16 04:40:00,53.8,52.1,30.19,North,360,0.0,10.0,94,0.00,,,0.06,Wunderground v.1.15,2014-09-16 07:40:00,
2014-09-16 04:45:00,53.9,52.5,30.19,North,360,0.0,10.0,95,0.00,,,0.06,Wunderground v.1.15,2014-09-16 07:45:00,
2014-09-16 04:50:00,53.9,52.5,30.19,North,360,0.0,10.0,95,0.00,,,0.06,Wunderground v.1.15,2014-09-16 07:50:00,
2014-09-16 04:55:00,53.8,52.4,30.18,North,360,0.0,10.0,95,0.00,,,0.06,Wunderground v.1.15,2014-09-16 07:55:00,
2014-09-16 05:00:00,53.7,52.3,30.18,North,360,0.0,10.0,95,0.00,,,0.06,Wunderground v.1.15,2014-09-16 08:00:00,
2014-09-16 05:05:00,53.7,52.3,30.18,North,360,0.0,10.0,95,0.00,,,0.06,Wunderground v.1.15,2014-09-16 08:05:00,
2014-09-16 05:15:00,53.7,52.3,30.18,North,360,0.0,10.0,95,0.00,,,0.07,Wunderground v.1.15,2014-09-16 08:15:00,
2014-09-16 05:20:00,53.7,52.3,30.18,North,360,0.0,10.0,95,0.00,,,0.07,Wunderground v.1.15,2014-09-16 08:20:00,
2014-09-16 05:25:00,53.7,52.3,30.17,North,360,0.0,10.0,95,0.00,,,0.07,Wunderground v.1.15,2014-09-16 08:25:00,
2014-09-16 05:30:00,53.7,52.3,30.17,North,360,0.0,10.0,95,0.00,,,0.07,Wunderground v.1.15,2014-09-16 08:30:00,
2014-09-16 05:35:00,53.7,52.3,30.18,North,360,0.0,10.0,95,0.00,,,0.07,Wunderground v.1.15,2014-09-16 08:35:00,
2014-09-16 05:40:00,53.7,52.3,30.17,North,360,0.0,10.0,95,0.00,,,0.07,Wunderground v.1.15,2014-09-16 08:40:00,
2014-09-16 05:45:00,53.7,52.3,30.17,North,360,0.0,10.0,95,0.00,,,0.07,Wunderground v.1.15,2014-09-16 08:45:00,
2014-09-16 05:50:00,53.7,52.3,30.17,North,360,0.0,10.0,95,0.00,,,0.07,Wunderground v.1.15,2014-09-16 08:50:00,
2014-09-16 05:55:00,53.5,52.1,30.17,North,360,0.0,10.0,95,0.00,,,0.07,Wunderground v.1.15,2014-09-16 08:55:00,
2014-09-16 06:00:00,53.5,52.1,30.18,North,360,0.0,10.0,95,0.00,,,0.07,Wunderground v.1.15,2014-09-16 09:00:00,
2014-09-16 06:05:00,53.5,52.1,30.18,North,360,0.0,10.0,95,0.00,,,0.07,Wunderground v.1.15,2014-09-16 09:05:00,
2014-09-16 06:10:00,53.5,52.4,30.18,North,360,0.0,10.0,96,0.00,,,0.07,Wunderground v.1.15,2014-09-16 09:10:00,
2014-09-16 06:15:00,53.5,52.4,30.18,North,360,0.0,10.0,96,0.00,,,0.07,Wunderground v.1.15,2014-09-16 09:15:00,
2014-09-16 06:20:00,53.4,52.3,30.18,North,360,0.0,10.0,96,0.00,,,0.07,Wunderground v.1.15,2014-09-16 09:20:00,
2014-09-16 06:25:00,53.4,52.3,30.18,North,360,0.0,10.0,96,0.00,,,0.07,Wunderground v.1.15,2014-09-16 09:25:00,
2014-09-16 06:30:00,53.3,52.2,30.18,North,360,0.0,10.0,96,0.00,,,0.07,Wunderground v.1.15,2014-09-16 09:30:00,
2014-09-16 06:35:00,53.3,51.9,30.18,North,360,0.0,10.0,95,0.00,,,0.07,Wunderground v.1.15,2014-09-16 09:35:00,
2014-09-16 06:40:00,53.2,51.8,30.18,North,360,0.0,10.0,95,0.00,,,0.07,Wunderground v.1.15,2014-09-16 09:40:00,
2014-09-16 06:45:00,53.1,51.7,30.18,North,360,0.0,10.0,95,0.00,,,0.07,Wunderground v.1.15,2014-09-16 09:45:00,
2014-09-16 06:55:00,53.0,51.9,30.17,North,360,0.0,10.0,96,0.00,,,0.07,Wunderground v.1.15,2014-09-16 09:55:00,
2014-09-16 07:00:00,52.9,51.8,30.18,North,360,0.0,10.0,96,0.00,,,0.07,Wunderground v.1.15,2014-09-16 10:00:00,
2014-09-16 07:05:00,52.9,51.8,30.18,North,360,0.0,10.0,96,0.00,,,0.07,Wunderground v.1.15,2014-09-16 10:05:00,
2014-09-16 07:10:00,53.0,51.9,30.18,North,360,0.0,10.0,96,0.00,,,0.07,Wunderground v.1.15,2014-09-16 10:10:00,
2014-09-16 07:15:00,53.2,52.1,30.19,North,360,0.0,10.0,96,0.00,,,0.07,Wunderground v.1.15,2014-09-16 10:15:00,
2014-09-16 07:25:00,53.2,52.1,30.19,North,360,0.0,10.0,96,0.00,,,0.07,Wunderground v.1.15,2014-09-16 10:25:00,
2014-09-16 07:30:00,53.2,52.1,30.19,North,360,0.0,0.0,96,0.00,,,0.07,Wunderground v.1.15,2014-09-16 10:30:00,
2014-09-16 07:35:00,53.3,52.2,30.19,North,360,0.0,0.0,96,0.00,,,0.07,Wunderground v.1.15,2014-09-16 10:35:00,
2014-09-16 07:40:00,53.3,52.2,30.19,North,360,0.0,0.0,96,0.00,,,0.07,Wunderground v.1.15,2014-09-16 10:40:00,
2014-09-16 07:45:00,53.3,52.2,30.19,North,360,0.0,0.0,96,0.00,,,0.07,Wunderground v.1.15,2014-09-16 10:45:00,
2014-09-16 07:50:00,53.3,52.2,30.19,North,360,0.0,0.0,96,0.00,,,0.07,Wunderground v.1.15,2014-09-16 10:50:00,
2014-09-16 07:55:00,53.3,52.2,30.19,North,360,0.0,0.0,96,0.00,,,0.07,Wunderground v.1.15,2014-09-16 10:55:00,
2014-09-16 08:05:00,53.3,52.2,30.19,North,360,0.0,0.0,96,0.00,,,0.07,Wunderground v.1.15,2014-09-16 11:05:00,
2014-09-16 08:10:00,53.3,52.2,30.19,North,360,0.0,0.0,96,0.00,,,0.07,Wunderground v.1.15,2014-09-16 11:10:00,
2014-09-16 08:20:00,53.2,52.1,30.19,North,360,0.0,0.0,96,0.00,,,0.07,Wunderground v.1.15,2014-09-16 11:20:00,
2014-09-16 08:25:00,53.3,52.2,30.19,North,360,0.0,0.0,96,0.00,,,0.07,Wunderground v.1.15,2014-09-16 11:25:00,
2014-09-16 08:30:00,53.3,52.2,30.19,North,360,0.0,0.0,96,0.00,,,0.07,Wunderground v.1.15,2014-09-16 11:30:00,
2014-09-16 08:40:00,53.3,52.2,30.20,North,360,0.0,0.0,96,0.00,,,0.07,Wunderground v.1.15,2014-09-16 11:40:00,
2014-09-16 08:45:00,53.5,52.4,30.20,North,360,0.0,0.0,96,0.00,,,0.07,Wunderground v.1.15,2014-09-16 11:45:00,
2014-09-16 08:50:00,53.6,52.5,30.20,North,360,0.0,0.0,96,0.00,,,0.07,Wunderground v.1.15,2014-09-16 11:50:00,
2014-09-16 08:55:00,53.6,52.5,30.20,North,360,0.0,0.0,96,0.00,,,0.07,Wunderground v.1.15,2014-09-16 11:55:00,
2014-09-16 09:00:00,53.7,52.6,30.20,North,360,0.0,0.0,96,0.00,,,0.07,Wunderground v.1.15,2014-09-16 12:00:00,
2014-09-16 09:05:00,53.9,53.1,30.20,North,360,0.0,0.0,97,0.00,,,0.07,Wunderground v.1.15,2014-09-16 12:05:00,
2014-09-16 09:10:00,54.0,52.9,30.20,North,360,0.0,0.0,96,0.00,,,0.07,Wunderground v.1.15,2014-09-16 12:10:00,
2014-09-16 09:15:00,54.1,53.0,30.20,North,360,0.0,0.0,96,0.00,,,0.07,Wunderground v.1.15,2014-09-16 12:15:00,
2014-09-16 09:20:00,54.1,53.0,30.20,North,360,0.0,0.0,96,0.00,,,0.07,Wunderground v.1.15,2014-09-16 12:20:00,
2014-09-16 09:25:00,54.5,53.4,30.20,North,360,0.0,0.0,96,0.00,,,0.07,Wunderground v.1.15,2014-09-16 12:25:00,
2014-09-16 09:30:00,54.8,53.7,30.20,North,355,0.0,0.0,96,0.00,,,0.07,Wunderground v.1.15,2014-09-16 12:30:00,
2014-09-16 09:35:00,54.9,53.5,30.20,NNW,340,0.0,0.0,95,0.00,,,0.07,Wunderground v.1.15,2014-09-16 12:35:00,
2014-09-16 09:45:00,55.5,53.5,30.20,NNW,341,0.0,0.0,93,0.00,,,0.07,Wunderground v.1.15,2014-09-16 12:45:00,
2014-09-16 09:55:00,55.9,53.6,30.20,NNW,328,0.0,0.0,92,0.00,,,0.07,Wunderground v.1.15,2014-09-16 12:55:00,
2014-09-16 10:00:00,56.1,53.8,30.20,NNW,328,0.0,0.0,92,0.00,,,0.07,Wunderground v.1.15,2014-09-16 13:00:00,
2014-09-16 10:05:00,56.1,53.5,30.20,NNW,329,0.0,0.0,91,0.00,,,0.07,Wunderground v.1.15,2014-09-16 13:05:00,
2014-09-16 10:10:00,56.3,53.7,30.20,NNW,328,0.0,0.0,91,0.00,,,0.07,Wunderground v.1.15,2014-09-16 13:10:00,
2014-09-16 10:15:00,56.7,54.1,30.20,NW,314,0.0,0.0,91,0.00,,,0.07,Wunderground v.1.15,2014-09-16 13:15:00,
2014-09-16 10:20:00,56.9,54.0,30.20,NW,313,0.0,0.0,90,0.00,,,0.07,Wunderground v.1.15,2014-09-16 13:20:00,
2014-09-16 10:25:00,57.8,55.2,30.20,NW,314,0.0,0.0,91,0.00,,,0.07,Wunderground v.1.15,2014-09-16 13:25:00,
2014-09-16 10:30:00,57.9,54.7,30.20,NW,315,0.0,0.0,89,0.00,,,0.07,Wunderground v.1.15,2014-09-16 13:30:00,
2014-09-16 10:35:00,57.9,54.7,30.20,NW,315,0.0,0.0,89,0.00,,,0.07,Wunderground v.1.15,2014-09-16 13:35:00,
2014-09-16 10:40:00,59.2,56.6,30.20,NW,315,0.0,0.0,91,0.00,,,0.07,Wunderground v.1.15,2014-09-16 13:40:00,
2014-09-16 10:45:00,59.9,56.0,30.21,NW,314,0.0,0.0,87,0.00,,,0.07,Wunderground v.1.15,2014-09-16 13:45:00,
2014-09-16 10:50:00,59.5,55.0,30.21,NW,312,0.0,0.0,85,0.00,,,0.07,Wunderground v.1.15,2014-09-16 13:50:00,
2014-09-16 10:55:00,59.3,55.1,30.21,NW,312,0.0,0.0,86,0.00,,,0.07,Wunderground v.1.15,2014-09-16 13:55:00,
2014-09-16 11:00:00,59.0,54.5,30.21,NW,308,0.0,0.0,85,0.00,,,0.07,Wunderground v.1.15,2014-09-16 14:00:00,
2014-09-16 11:05:00,58.8,54.3,30.21,NW,311,0.0,0.0,85,0.00,,,0.07,Wunderground v.1.15,2014-09-16 14:05:00,
2014-09-16 11:10:00,59.1,54.9,30.21,NW,311,0.0,0.0,86,0.00,,,0.07,Wunderground v.1.15,2014-09-16 14:10:00,
2014-09-16 11:15:00,59.3,55.1,30.21,NW,310,0.0,0.0,86,0.00,,,0.07,Wunderground v.1.15,2014-09-16 14:15:00,
2014-09-16 11:20:00,59.1,54.3,30.21,NW,312,0.0,0.0,84,0.00,,,0.07,Wunderground v.1.15,2014-09-16 14:20:00,
2014-09-16 11:30:00,61.9,56.3,30.21,WNW,301,0.0,0.0,82,0.00,,,0.07,Wunderground v.1.15,2014-09-16 14:30:00,
2014-09-16 11:35:00,62.1,55.5,30.21,WNW,294,0.0,0.0,79,0.00,,,0.07,Wunderground v.1.15,2014-09-16 14:35:00,
2014-09-16 11:40:00,63.5,56.9,30.21,West,270,0.0,0.0,79,0.00,,,0.07,Wunderground v.1.15,2014-09-16 14:40:00,
2014-09-16 11:45:00,63.1,53.9,30.21,NW,308,0.0,0.0,72,0.00,,,0.07,Wunderground v.1.15,2014-09-16 14:45:00,
2014-09-16 11:50:00,62.3,54.6,30.21,WSW,247,2.0,5.0,76,0.00,,,0.07,Wunderground v.1.15,2014-09-16 14:50:00,
2014-09-16 11:55:00,61.6,53.6,30.21,NW,306,3.0,5.0,75,0.00,,,0.07,Wunderground v.1.15,2014-09-16 14:55:00,
2014-09-16 12:05:00,63.1,55.0,30.21,WNW,290,3.0,4.0,75,0.00,,,0.07,Wunderground v.1.15,2014-09-16 15:05:00,
2014-09-16 12:10:00,63.1,54.7,30.21,NW,308,3.0,3.0,74,0.00,,,0.07,Wunderground v.1.15,2014-09-16 15:10:00,
2014-09-16 12:15:00,63.2,54.0,30.21,NW,310,3.0,5.0,72,0.00,,,0.07,Wunderground v.1.15,2014-09-16 15:15:00,
2014-09-16 12:20:00,63.3,54.5,30.20,WNW,295,3.0,4.0,73,0.00,,,0.07,Wunderground v.1.15,2014-09-16 15:20:00,
2014-09-16 12:25:00,63.2,54.4,30.20,SW,229,4.0,7.0,73,0.00,,,0.07,Wunderground v.1.15,2014-09-16 15:25:00,
2014-09-16 12:30:00,64.0,55.2,30.20,WSW,248,4.0,4.0,73,0.00,,,0.07,Wunderground v.1.15,2014-09-16 15:30:00,
2014-09-16 12:40:00,62.9,53.0,30.20,NW,312,3.0,4.0,70,0.00,,,0.07,Wunderground v.1.15,2014-09-16 15:40:00,
2014-09-16 12:45:00,62.3,52.4,30.20,WNW,295,3.0,4.0,70,0.00,,,0.07,Wunderground v.1.15,2014-09-16 15:45:00,
2014-09-16 12:50:00,61.9,52.4,30.20,WNW,301,3.0,6.0,71,0.00,,,0.07,Wunderground v.1.15,2014-09-16 15:50:00,
2014-09-16 12:55:00,61.9,53.5,30.20,NW,316,4.0,6.0,74,0.00,,,0.07,Wunderground v.1.15,2014-09-16 15:55:00,
2014-09-16 13:00:00,61.7,53.3,30.20,WNW,301,5.0,6.0,74,0.00,,,0.07,Wunderground v.1.15,2014-09-16 16:00:00,
2014-09-16 13:10:00,61.8,53.4,30.19,WNW,289,5.0,7.0,74,0.00,,,0.07,Wunderground v.1.15,2014-09-16 16:10:00,
2014-09-16 13:15:00,61.6,53.6,30.19,WNW,302,6.0,7.0,75,0.00,,,0.07,Wunderground v.1.15,2014-09-16 16:15:00,
2014-09-16 13:20:00,61.5,53.9,30.19,NW,318,6.0,6.0,76,0.00,,,0.07,Wunderground v.1.15,2014-09-16 16:20:00,
2014-09-16 13:25:00,61.8,53.4,30.19,NW,312,5.0,6.0,74,0.00,,,0.07,Wunderground v.1.15,2014-09-16 16:25:00,
2014-09-16 13:30:00,62.0,54.0,30.19,WNW,285,6.0,6.0,75,0.00,,,0.07,Wunderground v.1.15,2014-09-16 16:30:00,
2014-09-16 13:35:00,62.0,53.6,30.19,WNW,301,6.0,6.0,74,0.00,,,0.07,Wunderground v.1.15,2014-09-16 16:35:00,
2014-09-16 13:45:00,62.2,53.4,30.19,NW,313,6.0,7.0,73,0.00,,,0.07,Wunderground v.1.15,2014-09-16 16:45:00,
2014-09-16 13:50:00,62.1,53.3,30.19,NW,307,6.0,6.0,73,0.00,,,0.07,Wunderground v.1.15,2014-09-16 16:50:00,
2014-09-16 13:55:00,62.4,52.9,30.19,WNW,300,6.0,6.0,71,0.00,,,0.07,Wunderground v.1.15,2014-09-16 16:55:00,
2014-09-16 14:00:00,62.7,53.5,30.19,NW,307,6.0,6.0,72,0.00,,,0.07,Wunderground v.1.15,2014-09-16 17:00:00,
2014-09-16 14:05:00,62.9,52.6,30.19,WNW,295,6.0,6.0,69,0.00,,,0.07,Wunderground v.1.15,2014-09-16 17:05:00,
2014-09-16 14:10:00,62.9,53.0,30.19,NW,309,5.0,5.0,70,0.00,,,0.07,Wunderground v.1.15,2014-09-16 17:10:00,
2014-09-16 14:15:00,62.9,53.4,30.19,NW,304,4.0,7.0,71,0.00,,,0.07,Wunderground v.1.15,2014-09-16 17:15:00,
2014-09-16 14:20:00,62.6,53.8,30.19,WNW,297,4.0,5.0,73,0.00,,,0.07,Wunderground v.1.15,2014-09-16 17:20:00,
2014-09-16 14:25:00,62.8,54.0,30.19,WNW,299,4.0,6.0,73,0.00,,,0.07,Wunderground v.1.15,2014-09-16 17:25:00,
2014-09-16 14:30:00,62.8,53.6,30.18,WNW,295,4.0,4.0,72,0.00,,,0.07,Wunderground v.1.15,2014-09-16 17:30:00,
2014-09-16 14:35:00,63.2,54.8,30.18,WSW,243,4.0,4.0,74,0.00,,,0.07,Wunderground v.1.15,2014-09-16 17:35:00,
2014-09-16 14:40:00,63.8,52.6,30.18,WNW,300,4.0,8.0,67,0.00,,,0.07,Wunderground v.1.15,2014-09-16 17:40:00,
2014-09-16 14:45:00,63.7,52.5,30.18,WNW,294,4.0,8.0,67,0.00,,,0.07,Wunderground v.1.15,2014-09-16 17:45:00,
2014-09-16 14:50:00,64.3,52.7,30.18,NW,318,4.0,7.0,66,0.00,,,0.07,Wunderground v.1.15,2014-09-16 17:50:00,
2014-09-16 14:55:00,64.1,53.3,30.18,WNW,289,5.0,7.0,68,0.00,,,0.07,Wunderground v.1.15,2014-09-16 17:55:00,
2014-09-16 15:00:00,64.1,53.7,30.18,WNW,296,5.0,5.0,69,0.00,,,0.07,Wunderground v.1.15,2014-09-16 18:00:00,
2014-09-16 15:09:00,64.9,53.7,30.17,SSW,213,6.0,8.0,67,0.00,,,0.07,Wunderground v.1.15,2014-09-16 18:09:00,
2014-09-16 15:14:00,65.2,54.4,30.17,WSW,240,7.0,8.0,68,0.00,,,0.07,Wunderground v.1.15,2014-09-16 18:14:00,
2014-09-16 15:20:00,65.0,53.8,30.17,SW,235,7.0,7.0,67,0.00,,,0.07,Wunderground v.1.15,2014-09-16 18:20:00,
2014-09-16 15:25:00,65.1,54.3,30.17,SW,231,7.0,7.0,68,0.00,,,0.07,Wunderground v.1.15,2014-09-16 18:25:00,
2014-09-16 15:30:00,65.2,54.0,30.17,NW,312,6.0,6.0,67,0.00,,,0.07,Wunderground v.1.15,2014-09-16 18:30:00,
2014-09-16 15:40:00,64.9,52.8,30.17,West,265,7.0,9.0,65,0.00,,,0.07,Wunderground v.1.15,2014-09-16 18:40:00,
2014-09-16 15:45:00,65.2,52.7,30.17,West,259,7.0,9.0,64,0.00,,,0.07,Wunderground v.1.15,2014-09-16 18:45:00,
2014-09-16 15:50:00,65.2,52.7,30.17,WSW,258,6.0,6.0,64,0.00,,,0.07,Wunderground v.1.15,2014-09-16 18:50:00,
2014-09-16 16:00:00,63.6,52.0,30.17,WNW,299,5.0,5.0,66,0.00,,,0.07,Wunderground v.1.15,2014-09-16 19:00:00,
2014-09-16 16:05:00,63.4,52.7,30.16,WSW,241,4.0,5.0,68,0.00,,,0.07,Wunderground v.1.15,2014-09-16 19:05:00,
2014-09-16 16:10:00,63.6,52.4,30.16,SW,235,4.0,6.0,67,0.00,,,0.07,Wunderground v.1.15,2014-09-16 19:10:00,
2014-09-16 16:15:00,63.7,52.5,30.16,WSW,239,6.0,6.0,67,0.00,,,0.07,Wunderground v.1.15,2014-09-16 19:15:00,
2014-09-16 16:20:00,63.4,52.7,30.16,NW,306,5.0,5.0,68,0.00,,,0.07,Wunderground v.1.15,2014-09-16 19:20:00,
2014-09-16 16:25:00,63.1,52.8,30.16,WNW,283,4.0,6.0,69,0.00,,,0.07,Wunderground v.1.15,2014-09-16 19:25:00,
2014-09-16 16:30:00,62.9,52.6,30.16,WSW,238,4.0,4.0,69,0.00,,,0.07,Wunderground v.1.15,2014-09-16 19:30:00,
2014-09-16 16:35:00,62.9,52.6,30.16,WSW,252,4.0,6.0,69,0.00,,,0.07,Wunderground v.1.15,2014-09-16 19:35:00,
2014-09-16 16:40:00,62.7,52.4,30.16,SW,231,5.0,5.0,69,0.00,,,0.07,Wunderground v.1.15,2014-09-16 19:40:00,
2014-09-16 16:45:00,62.7,52.4,30.16,WNW,283,5.0,5.0,69,0.00,,,0.07,Wunderground v.1.15,2014-09-16 19:45:00,
2014-09-16 16:50:00,62.6,52.7,30.16,NW,319,4.0,5.0,70,0.00,,,0.07,Wunderground v.1.15,2014-09-16 19:50:00,
2014-09-16 16:55:00,62.7,52.0,30.16,WNW,298,4.0,5.0,68,0.00,,,0.07,Wunderground v.1.15,2014-09-16 19:55:00,
2014-09-16 17:00:00,63.1,52.4,30.16,WSW,239,5.0,7.0,68,0.00,,,0.07,Wunderground v.1.15,2014-09-16 20:00:00,
2014-09-16 17:05:00,64.2,53.4,30.16,West,266,6.0,7.0,68,0.00,,,0.07,Wunderground v.1.15,2014-09-16 20:05:00,
2014-09-16 17:10:00,64.3,52.7,30.16,West,268,7.0,13.0,66,0.00,,,0.07,Wunderground v.1.15,2014-09-16 20:10:00,
2014-09-16 17:15:00,63.5,51.9,30.16,SW,232,7.0,13.0,66,0.00,,,0.07,Wunderground v.1.15,2014-09-16 20:15:00,
2014-09-16 17:20:00,63.1,52.0,30.16,West,270,8.0,8.0,67,0.00,,,0.07,Wunderground v.1.15,2014-09-16 20:20:00,
2014-09-16 17:25:00,63.4,53.0,30.16,SW,234,9.0,10.0,69,0.00,,,0.07,Wunderground v.1.15,2014-09-16 20:25:00,
2014-09-16 17:30:00,64.3,53.5,30.16,SW,230,10.0,11.0,68,0.00,,,0.07,Wunderground v.1.15,2014-09-16 20:30:00,
2014-09-16 17:35:00,64.6,53.4,30.16,WNW,283,9.0,11.0,67,0.00,,,0.07,Wunderground v.1.15,2014-09-16 20:35:00,
2014-09-16 17:40:00,64.9,54.1,30.16,SW,231,10.0,10.0,68,0.00,,,0.07,Wunderground v.1.15,2014-09-16 20:40:00,
2014-09-16 17:45:00,64.7,53.5,30.16,WNW,292,10.0,10.0,67,0.00,,,0.07,Wunderground v.1.15,2014-09-16 20:45:00,
2014-09-16 17:50:00,64.8,54.4,30.16,WSW,242,10.0,10.0,69,0.00,,,0.07,Wunderground v.1.15,2014-09-16 20:50:00,
2014-09-16 17:55:00,64.7,54.7,30.16,SW,230,9.0,10.0,70,0.00,,,0.07,Wunderground v.1.15,2014-09-16 20:55:00,